Temp
14 14 14 14 14 15 15 15 16 16 16 17 17 17 18 18 19 19 19 19 19 19 19 19 18 17 18 18 17 17 12 13 16 15 18 19 18 21 21 20 21 22 22 22 22
14 14 14 14 14 15 15 15 16 16 16 17 17 17 18 18 19 19 19 19 19 18 18 18 18 17 17 17 17 14 11 14 15 16 18 18 18 19 20 19 20 21 22 21 21
14 14 14 14 14 14 15 15 15 16 16 17 17 17 18 18 18 18 19 19 19 18 18 17 17 17 17 17 16 14 13 14 17 18 18 18 17 19 19 17 20 21 21 21 20
13 13 13 14 14 14 14 14 15 15 16 16 17 17 17 18 18 18 18 18 18 18 17 17 16 17 15 15 16 15 15 16 17 18 17 16 18 18 19 19 20 20 20 21 20
13 13 13 14 14 14 14 14 15 15 16 16 16 17 17 17 18 18 18 18 18 18 18 17 16 16 15 15 16 14 15 17 17 17 18 17 16 16 18 20 20 20 20 20 20
13 13 13 13 13 14 14 14 15 15 16 17 17 17 16 15 18 17 17 18 18 18 18 17 17 17 16 16 15 16 16 15 17 17 17 16 16 16 19 19 19 19 19 20 20
13 13 12 12 13 13 14 14 15 15 16 16 16 16 15 18 17 17 17 17 17 17 17 17 16 16 16 15 16 16 14 13 15 16 16 16 15 14 19 18 19 18 18 19 19
12 12 12 13 13 14 15 14 15 15 15 15 15 15 16 16 16 16 17 17 16 16 16 16 16 16 16 16 15 14 13 13 15 16 17 17 14 16 18 17 18 19 20 20 20
12 12 13 13 13 14 15 15 16 15 15 15 14 14 16 16 16 16 16 16 16 16 16 16 16 16 15 12 11 11 11 12 13 15 15 15 13 15 18 16 17 19 20 20 20
12 12 12 12 12 13 14 15 15 14 14 15 13 13 15 15 16 16 16 16 16 16 15 15 15 11 9 11 10 11 11 11 11 14 14 13 13 12 16 17 17 18 19 19 19
12 12 12 12 12 12 13 15 14 14 14 13 14 13 14 15 15 16 17 16 15 15 13 13 11 10 11 11 12 13 12 11 11 12 12 12 12 12 14 15 15 18 18 17 16
12 12 12 12 11 11 12 11 8 8 7 14 12 12 13 13 13 15 15 15 14 12 12 11 10 11 12 12 11 11 11 10 11 12 11 11 13 13 13 13 15 14 14 13 14
11 11 12 12 11 11 11 9 9 7 6 10 12 13 13 14 13 14 15 15 13 12 11 10 12 12 12 12 12 11 10 10 11 12 12 11 11 13 14 14 14 13 10 10 10
10 11 11 11 11 10 10 10 10 8 6 11 12 13 13 13 13 14 14 14 13 12 11 10 12 13 12 12 11 11 12 12 12 11 11 13 10 13 13 13 10 9 7 8 8
9 10 10 10 9 9 9 10 10 9 11 13 13 13 13 13 13 14 14 14 13 13 12 12 13 12 12 12 12 12 13 12 12 10 10 11 10 10 11 13 7 7 7 7 8
10 9 10 9 9 9 9 10 10 9 11 13 13 12 13 12 12 13 14 14 12 12 11 10 11 10 10 11 11 10 12 11 10 9 9 11 10 10 10 7 6 7 7 7 7
9 9 9 9 9 8 9 10 7 8 11 12 11 11 11 11 11 9 8 8 10 11 10 10 9 8 8 9 10 9 10 8 9 8 9 10 9 10 6 6 6 6 7 7 8
9 9 9 8 8 8 9 8 8 9 9 11 10 11 11 10 10 9 8 7 6 8 7 8 9 6 7 7 7 8 8 7 8 7 7 8 9 9 6 6 7 7 7 7 7
10 7 6 8 7 7 8 6 7 8 10 10 10 10 10 9 9 9 8 6 6 6 8 6 7 7 7 7 8 7 6 7 6 6 5 6 8 7 6 6 7 7 7 6 6
9 6 6 6 6 6 6 7 7 9 10 10 10 10 9 8 9 8 6 6 6 6 6 5 6 5 7 7 6 6 6 7 5 4 6 6 6 7 4 5 5 6 7 6 6
6 6 6 6 6 6 4 5 7 10 10 9 8 9 8 8 7 7 8 6 6 5 6 5 5 5 6 5 4 5 4 4 4 4 3 5 6 5 4 4 4 5 6 7 6
6 5 5 5 4 4 4 5 8 8 8 7 7 8 8 7 6 6 5 6 6 6 5 4 4 4 4 4 4 4 3 2 2 2 1 -1 2 6 3 4 5 5 5 6 7
6 5 4 4 3 0 3 4 7 8 8 7 7 7 5 6 6 4 5 5 5 5 4 4 3 3 3 4 4 3 3 3 1 -1 -2 -1 2 5 5 5 5 5 5 5 6
6 3 3 3 2 3 4 5 5 3 5 5 4 4 3 3 3 2 4 3 4 5 6 5 2 3 3 3 0 -0 1 1 -1 -4 -4 1 1 2 2 2 3 3 4 4 5
5 2 2 1 1 2 2 2 3 3 2 1 1 2 2 2 2 2 3 4 4 4 3 3 2 2 2 2 2 1 2 1 -3 -2 -2 1 -0 1 2 2 3 3 3 3 4
3 2 1 -0 -0 -0 1 1 1 3 2 1 2 3 2 0 2 2 3 3 3 2 2 1 1 1 1 1 1 1 2 2 1 1 -1 -0 0 2 3 3 2 3 3 3 4
3 2 2 1 0 0 0 1 2 3 1 2 2 2 2 3 4 3 3 4 3 1 0 0 -0 -1 -1 -1 -0 0 1 1 2 1 1 0 2 1 1 1 2 2 2 3 4
Height
1535 1534 1532 1530 1528 1525 1523 1521 1519 1516 1514 1511 1508 1505 1503 1501 1499 1498 1497 1496 1496 1497 1498 1498 1500 1501 1503 1503 1504 1505 1516 1520 1510 1509 1500 1496 1495 1494 1494 1493 1494 1494 1493 1492 1491
1536 1535 1533 1531 1528 1526 1523 1521 1518 1515 1513 1511 1507 1505 1502 1500 1498 1496 1498 1497 1497 1497 1498 1499 1500 1501 1503 1504 1504 1505 1518 1510 1502 1499 1498 1497 1497 1496 1495 1491 1491 1492 1492 1491 1490
1536 1534 1532 1530 1527 1525 1522 1519 1516 1513 1511 1509 1506 1504 1501 1499 1497 1496 1496 1497 1497 1497 1498 1499 1500 1502 1503 1504 1505 1506 1509 1502 1498 1499 1499 1497 1496 1496 1495 1490 1490 1491 1490 1489 1489
1536 1534 1531 1529 1526 1523 1520 1517 1514 1511 1509 1507 1505 1503 1500 1499 1501 1496 1496 1496 1496 1496 1497 1499 1501 1503 1504 1504 1503 1506 1502 1501 1498 1497 1496 1495 1493 1492 1491 1485 1489 1489 1488 1488 1488
1535 1533 1530 1527 1524 1521 1518 1515 1512 1509 1505 1503 1502 1500 1499 1498 1496 1495 1495 1495 1495 1495 1495 1497 1500 1503 1505 1505 1504 1504 1501 1500 1497 1496 1495 1493 1491 1490 1486 1484 1484 1483 1484 1483 1484
1534 1531 1528 1525 1522 1518 1515 1512 1508 1505 1502 1500 1498 1497 1497 1497 1493 1494 1494 1494 1494 1495 1495 1497 1498 1498 1500 1501 1503 1502 1499 1497 1495 1492 1492 1490 1487 1488 1480 1482 1478 1477 1477 1477 1479
1533 1530 1527 1523 1520 1516 1512 1508 1504 1502 1499 1497 1495 1495 1494 1494 1492 1492 1493 1494 1494 1493 1493 1494 1497 1500 1501 1500 1500 1498 1500 1496 1490 1489 1488 1487 1487 1484 1479 1479 1475 1473 1473 1473 1474
1532 1529 1526 1523 1519 1515 1510 1506 1501 1498 1496 1494 1493 1493 1492 1491 1491 1492 1493 1493 1493 1494 1495 1495 1497 1498 1499 1499 1498 1500 1501 1505 1490 1487 1487 1489 1494 1482 1480 1477 1473 1471 1469 1469 1469
1531 1529 1526 1522 1518 1513 1507 1503 1498 1495 1493 1492 1492 1491 1489 1488 1489 1490 1491 1491 1490 1491 1492 1495 1495 1496 1498 1503 1510 1507 1510 1505 1498 1489 1489 1488 1492 1482 1480 1476 1473 1469 1465 1463 1463
1531 1528 1524 1520 1516 1511 1506 1501 1496 1494 1493 1491 1490 1493 1489 1489 1489 1489 1490 1490 1490 1490 1491 1491 1492 1494 1499 1504 1516 1507 1508 1504 1503 1491 1487 1490 1484 1480 1477 1476 1470 1466 1463 1460 1460
1529 1527 1524 1520 1517 1512 1506 1500 1500 1496 1494 1494 1491 1489 1487 1488 1489 1490 1490 1491 1492 1493 1495 1493 1498 1499 1494 1493 1496 1497 1501 1503 1498 1491 1493 1490 1481 1477 1472 1470 1466 1463 1459 1458 1455
1528 1526 1523 1521 1518 1515 1511 1507 1512 1513 1495 1487 1484 1484 1486 1489 1488 1486 1486 1489 1491 1495 1495 1498 1498 1490 1490 1492 1495 1497 1501 1501 1491 1483 1488 1485 1476 1473 1469 1465 1463 1465 1463 1457 1450
1527 1524 1522 1520 1517 1516 1513 1513 1511 1509 1505 1484 1482 1483 1485 1487 1489 1490 1490 1489 1491 1497 1500 1504 1495 1488 1491 1494 1500 1500 1499 1495 1493 1483 1480 1481 1475 1467 1464 1462 1463 1463 1464 1459 1454
1525 1523 1521 1519 1519 1516 1515 1514 1512 1508 1510 1489 1485 1485 1486 1486 1487 1488 1489 1493 1493 1495 1496 1498 1492 1490 1490 1490 1492 1500 1490 1487 1487 1489 1493 1479 1494 1471 1466 1463 1464 1464 1462 1458 1454
1524 1522 1520 1519 1520 1519 1518 1515 1514 1512 1517 1488 1486 1486 1485 1488 1489 1488 1488 1489 1491 1493 1495 1495 1491 1491 1490 1488 1485 1489 1481 1485 1486 1489 1487 1484 1494 1473 1466 1462 1470 1468 1465 1460 1455
1522 1520 1519 1518 1518 1518 1517 1515 1512 1520 1515 1489 1488 1488 1488 1489 1489 1488 1488 1488 1489 1491 1493 1493 1492 1494 1493 1489 1486 1484 1485 1485 1485 1492 1497 1481 1486 1479 1471 1478 1478 1473 1467 1461 1453
1519 1518 1517 1517 1518 1517 1517 1516 1524 1524 1493 1494 1494 1490 1491 1491 1489 1489 1492 1495 1496 1495 1496 1494 1496 1497 1496 1493 1488 1489 1488 1504 1499 1500 1490 1478 1484 1474 1482 1483 1485 1482 1473 1462 1455
1514 1513 1513 1514 1516 1517 1518 1519 1528 1506 1502 1493 1493 1492 1493 1496 1495 1494 1495 1499 1499 1498 1503 1500 1499 1500 1499 1497 1500 1497 1496 1501 1499 1502 1497 1485 1483 1475 1482 1481 1483 1482 1476 1464 1457
1510 1508 1510 1513 1514 1515 1519 1525 1513 1504 1498 1499 1496 1495 1496 1495 1495 1495 1498 1498 1497 1499 1499 1504 1500 1500 1500 1498 1498 1499 1502 1502 1503 1508 1510 1493 1480 1480 1477 1475 1476 1476 1474 1469 1463
1506 1504 1506 1507 1510 1514 1517 1511 1505 1498 1494 1493 1494 1493 1495 1495 1497 1494 1494 1493 1496 1496 1496 1498 1501 1504 1499 1497 1499 1501 1502 1501 1506 1518 1505 1494 1487 1475 1485 1481 1479 1476 1474 1473 1468
1503 1501 1499 1500 1506 1511 1511 1504 1495 1493 1496 1497 1493 1491 1492 1491 1494 1495 1487 1494 1491 1498 1497 1497 1502 1503 1499 1505 1509 1508 1508 1507 1509 1516 1517 1504 1486 1483 1486 1482 1482 1479 1477 1474 1471
1502 1503 1499 1500 1503 1500 1501 1495 1488 1486 1490 1491 1490 1487 1486 1487 1488 1491 1488 1485 1486 1493 1496 1499 1501 1505 1509 1508 1508 1506 1509 1510 1518 1521 1525 1533 1504 1482 1485 1482 1479 1477 1474 1472 1469
1500 1498 1500 1502 1503 1503 1494 1490 1488 1485 1487 1490 1487 1484 1485 1484 1490 1491 1486 1488 1488 1491 1495 1494 1504 1510 1513 1510 1508 1510 1511 1511 1518 1526 1531 1533 1497 1479 1479 1478 1473 1470 1472 1468 1466
1495 1500 1499 1501 1499 1497 1493 1487 1486 1484 1486 1485 1487 1491 1490 1491 1491 1495 1493 1493 1492 1492 1494 1496 1504 1500 1500 1502 1512 1517 1514 1514 1521 1539 1534 1510 1495 1493 1489 1485 1477 1470 1469 1466 1462
1492 1491 1489 1494 1495 1495 1494 1492 1487 1486 1487 1488 1489 1487 1492 1492 1491 1493 1489 1493 1494 1491 1495 1497 1504 1506 1499 1500 1504 1508 1505 1509 1521 1519 1524 1502 1502 1488 1483 1477 1470 1465 1462 1460 1455
1491 1488 1493 1493 1489 1492 1492 1488 1487 1485 1489 1488 1486 1480 1483 1489 1484 1486 1486 1489 1489 1490 1496 1498 1506 1508 1507 1505 1505 1502 1500 1503 1504 1506 1511 1503 1493 1483 1476 1470 1463 1457 1454 1453 1449
1490 1493 1491 1489 1489 1494 1487 1479 1478 1480 1478 1478 1482 1479 1480 1478 1483 1483 1483 1483 1484 1486 1494 1499 1504 1511 1515 1510 1506 1503 1493 1494 1495 1496 1497 1498 1484 1480 1471 1464 1454 1448 1447 1445 1442
Wind_Speed
12 12 13 14 15 16 17 17 17 17 17 16 17 16 15 14 14 13 6 2 5 6 4 6 9 7 5 4 3 3 4 2 4 5 4 4 7 4 11 5 8 4 7 8 8
13 14 15 16 16 17 17 18 19 19 18 17 18 17 16 15 14 7 2 2 2 3 3 6 8 7 3 3 2 4 3 6 4 3 1 6 4 13 8 13 8 12 10 11 11
13 14 15 16 17 18 19 20 21 20 20 18 17 17 15 14 9 2 4 1 1 4 5 5 5 6 1 1 3 4 5 3 4 7 7 6 9 6 5 6 5 8 13 13 10
15 17 18 19 19 20 20 21 22 22 22 20 19 17 15 11 2 3 1 3 4 4 7 7 6 3 1 3 3 1 8 7 6 5 8 4 10 4 12 24 21 19 16 18 14
15 16 18 19 20 20 20 21 22 23 23 21 19 16 13 6 5 5 4 2 2 4 8 10 8 3 1 2 2 3 4 9 13 15 15 15 13 9 15 28 27 26 23 19 17
15 17 19 21 22 23 22 21 21 22 23 20 16 13 10 4 6 6 4 2 3 3 8 12 6 7 4 4 3 2 7 10 11 18 17 8 11 1 22 16 19 20 23 22 20
16 18 20 22 24 24 22 21 22 23 20 16 11 10 11 10 7 8 5 4 4 3 8 12 10 4 0 3 3 4 5 8 9 7 4 1 4 6 11 16 20 16 16 18 20
16 18 20 23 25 27 25 23 23 21 17 12 9 8 6 4 7 6 5 5 4 5 3 3 9 4 4 2 4 3 3 3 5 3 4 2 7 7 16 24 17 23 24 19 16
17 19 21 23 24 27 26 23 23 17 12 10 7 5 5 4 5 5 4 2 3 5 6 4 5 5 3 4 4 3 5 3 7 2 3 3 6 6 25 21 23 27 29 29 27
17 19 19 21 23 26 25 24 15 12 6 9 4 4 4 3 4 6 6 6 5 8 6 7 6 3 3 4 6 5 4 4 4 4 10 13 16 7 23 20 27 28 32 34 33
17 18 19 20 22 24 29 16 14 3 22 13 17 9 11 6 11 14 13 12 6 4 4 1 2 6 11 8 3 2 4 7 4 8 5 9 15 11 18 23 23 30 31 31 33
17 17 18 18 19 18 22 15 12 10 14 22 24 22 21 16 6 3 4 7 5 5 2 3 7 9 5 3 4 4 4 6 6 8 4 8 16 11 10 11 17 14 24 29 31
19 18 18 15 15 15 16 16 16 14 7 8 3 2 2 1 2 4 3 3 3 2 3 5 4 6 4 2 3 4 5 5 11 3 3 5 8 4 4 9 11 23 28 30 30
19 18 19 17 8 15 9 14 16 14 4 6 3 3 2 0 3 3 1 1 1 4 3 5 6 3 3 5 6 3 8 11 7 2 2 2 6 6 3 5 10 24 30 35 36
18 19 19 16 12 11 12 13 15 8 5 2 2 2 3 3 1 2 4 2 2 2 4 5 2 3 4 4 5 8 1 3 3 4 1 3 1 7 4 5 9 18 26 32 37
18 16 17 14 9 6 10 12 8 5 7 3 3 4 3 5 3 4 1 2 2 1 1 5 1 3 4 5 3 5 3 3 3 1 3 5 7 7 3 4 6 15 23 30 37
19 16 14 11 7 7 9 7 4 4 6 3 3 4 2 2 2 4 4 4 1 1 2 3 1 4 4 4 2 6 3 2 3 1 6 1 2 6 5 6 5 11 20 28 37
19 17 15 12 5 5 5 4 4 3 6 2 2 2 2 3 2 2 2 2 2 2 2 4 4 4 6 2 1 3 1 3 6 3 4 5 5 2 6 6 11 16 23 31 41
22 16 12 11 8 5 2 2 7 6 2 5 4 1 2 2 1 1 2 4 3 3 7 5 4 2 2 3 2 1 3 1 0 3 1 4 3 3 4 10 16 21 27 30 32
19 11 15 14 11 10 2 6 5 4 3 2 5 7 6 4 3 3 6 4 4 3 3 4 2 1 1 1 8 4 0 2 2 1 4 5 5 4 7 9 12 17 23 25 31
10 5 7 14 14 7 4 7 5 12 8 6 7 11 8 6 6 4 3 1 4 1 2 3 1 2 1 6 2 3 1 4 2 1 3 4 5 5 5 6 10 16 22 25 24
6 2 8 18 6 6 4 6 5 4 7 6 3 5 8 8 7 7 9 3 9 7 5 1 3 2 2 4 5 2 2 3 4 3 2 1 8 4 6 12 18 21 27 29 32
5 6 15 25 4 3 4 5 7 4 6 3 5 2 4 4 4 3 3 3 8 3 5 6 2 3 2 1 3 2 1 3 3 2 5 3 7 4 20 28 43 38 30 32 35
5 1 4 16 4 2 2 5 4 1 4 2 3 7 3 2 2 2 2 1 4 0 4 4 1 3 4 3 4 2 3 2 5 2 4 10 22 16 19 19 28 35 31 32 38
9 2 4 3 6 8 1 3 2 2 2 2 3 9 6 6 5 6 7 2 1 3 3 3 3 3 2 1 3 6 6 6 7 6 4 15 15 21 19 18 28 34 34 30 35
3 1 1 3 0 3 7 4 6 5 5 4 9 9 12 7 9 7 8 7 6 3 3 2 3 1 2 3 3 8 10 9 12 12 9 18 23 18 24 24 27 29 27 25 31
5 2 2 3 3 2 4 7 8 4 11 13 11 6 14 12 2 2 22 7 7 7 4 4 5 3 2 3 5 5 6 5 2 4 6 7 14 12 20 24 30 31 25 24 32
Wind_Direction
16 11 7 3 0 355 351 348 344 342 339 336 333 328 328 321 316 317 335 100 164 179 199 193 180 181 172 161 137 128 59 246 254 166 256 344 20 351 332 298 327 324 302 292 293
12 7 3 0 357 353 348 345 342 339 336 334 331 330 331 328 326 307 118 129 162 194 188 188 188 181 175 192 183 100 121 226 222 228 293 321 344 328 325 312 310 311 314 310 270
359 354 351 349 345 342 340 337 334 331 330 328 327 325 329 328 336 116 137 108 268 211 192 183 194 182 199 207 204 166 197 216 270 259 303 314 307 309 287 289 275 299 314 326 287
349 346 343 339 336 333 332 330 328 326 322 322 322 321 323 326 358 171 207 298 288 239 200 184 171 158 138 232 216 259 259 246 283 292 304 273 288 257 233 268 286 291 290 295 287
343 341 339 336 333 331 328 327 325 323 319 316 315 317 316 300 255 227 252 293 291 230 211 182 175 150 267 255 317 207 270 287 284 295 290 286 265 249 260 281 287 276 274 277 266
338 338 337 337 335 331 327 324 320 319 317 315 307 305 293 258 236 217 215 274 317 250 212 198 192 208 236 227 181 283 274 281 294 289 279 248 276 211 285 316 309 290 274 271 258
339 339 337 336 336 334 331 324 317 318 318 315 303 291 277 271 230 216 231 274 272 255 220 210 203 203 327 301 266 273 307 318 275 277 263 241 279 224 297 338 332 321 294 273 268
336 337 337 336 340 341 339 328 323 321 322 317 307 294 261 224 219 228 257 287 257 220 198 203 210 247 205 285 353 341 57 328 293 346 299 109 275 303 334 331 323 328 323 315 301
333 336 338 338 339 340 342 334 325 320 321 320 311 289 266 205 210 212 210 291 229 212 199 173 195 204 149 89 359 347 257 246 314 331 327 52 285 286 314 312 310 316 308 306 303
329 332 331 332 337 339 345 343 329 320 327 314 295 293 246 211 192 211 227 262 216 200 186 201 198 135 73 117 232 216 241 243 251 299 318 312 288 276 300 296 300 304 305 303 303
323 325 331 332 339 344 349 10 4 338 325 279 281 268 276 266 276 277 276 248 226 200 183 190 159 204 208 200 136 149 214 251 256 270 284 261 279 277 285 291 286 292 305 317 325
325 328 332 333 340 349 354 34 21 331 307 289 277 268 271 287 280 285 235 187 178 208 86 359 257 234 220 184 204 202 265 270 272 251 177 270 281 279 268 268 286 343 347 340 330
328 331 335 338 338 348 6 14 357 344 286 312 321 337 21 113 331 357 174 154 115 142 222 179 262 59 155 253 251 248 230 231 250 308 263 291 289 194 292 286 27 8 355 356 352
324 326 326 339 346 349 1 352 345 338 9 282 9 35 110 81 52 68 79 287 35 227 197 233 272 254 196 221 193 262 237 251 261 45 241 69 290 304 306 336 20 5 356 357 353
320 321 323 330 340 345 338 345 338 335 337 52 44 86 88 81 301 4 39 162 196 236 115 254 337 304 241 229 161 229 294 257 250 199 232 182 133 272 340 301 5 350 353 354 358
314 315 319 323 333 343 345 338 335 37 256 350 23 356 45 24 27 327 99 95 104 169 316 248 32 46 299 317 338 324 292 29 29 158 278 196 178 278 324 9 342 345 356 355 356
305 304 303 306 312 327 339 341 25 168 357 346 348 20 73 316 14 52 39 23 218 289 242 329 48 338 11 327 27 18 78 312 296 212 240 130 181 247 76 39 345 337 354 5 7
294 288 284 286 298 310 336 41 184 239 263 323 6 336 259 358 346 24 88 176 72 138 168 198 261 11 329 72 294 15 30 178 235 214 268 326 241 150 99 70 18 4 2 13 9
294 278 265 284 241 262 165 211 219 208 284 344 314 271 303 296 238 322 247 213 192 189 187 170 251 247 51 40 330 326 77 120 114 302 47 243 277 169 32 25 16 11 5 2 3
275 266 255 257 222 219 145 242 240 233 186 148 205 192 224 219 233 189 187 169 188 206 190 196 257 286 307 160 32 62 203 132 81 259 247 290 273 225 28 13 3 2 4 355 354
265 251 232 194 193 165 210 220 253 245 229 205 229 250 240 210 204 215 208 260 155 134 117 133 130 324 322 35 32 345 36 52 83 57 210 288 265 125 74 19 350 337 341 342 344
226 248 185 178 146 184 210 206 223 201 228 260 256 249 238 207 212 215 212 201 166 158 147 140 126 54 324 306 223 156 118 99 139 201 203 189 270 120 335 324 324 323 318 323 328
242 229 181 179 209 241 271 267 237 227 215 227 254 239 11 189 250 268 168 100 133 123 179 169 157 134 322 351 55 96 121 116 111 83 209 159 258 319 334 321 314 312 311 310 314
209 204 168 210 254 300 252 250 237 87 290 183 336 3 12 277 326 250 239 212 181 233 164 113 132 196 186 136 126 164 210 141 130 137 220 238 277 291 284 283 288 293 301 300 300
214 243 176 208 239 234 224 329 302 281 25 154 239 220 203 208 193 224 205 140 233 245 117 131 169 240 270 211 178 210 226 208 193 213 205 279 271 276 282 284 283 288 288 287 289
330 121 25 262 101 242 196 221 240 221 193 222 235 200 196 200 206 178 181 175 205 128 121 27 137 111 287 324 263 277 258 240 235 251 250 259 272 278 284 296 285 276 279 277 286
327 316 223 199 164 205 215 205 215 176 225 231 224 208 218 212 217 262 201 215 170 138 135 132 138 121 279 342 313 275 224 179 188 196 209 266 290 327 308 301 292 283 277 275 276